Location: Newark
(25.4800°N, 85.7200°E)
Time: 09:33:02
(UTC+00:00)

Vanguard 1 - Visible Passes

Search period start: 22 August 2019 00:00
Search period end: 01 September 2019 00:00
Orbit: 655 x 3829 km, 34.2° (Epoch: 20 August)

Date Brightness Start Highest point End Pass type
(mag) Time Alt. Az. Time Alt. Az. Time Alt. Az.
22 Aug 13.5 14:06:18 10° SW 14:11:10 13° SSW 14:17:09 10° S visible
25 Aug 13.5 22:57:19 10° S 23:04:10 14° SSE 23:09:34 10° ESE visible
26 Aug 13.2 23:15:36 10° SSW 23:25:59 21° SSE 23:33:09 10° ESE visible
27 Aug 12.9 23:35:08 10° SSW 23:47:41 29° SSE 23:55:29 10° E visible
28 Aug 13.8 21:37:29 10° S 21:44:23 13° SSE 21:50:09 10° SE visible
29 Aug 13.5 21:54:48 10° S 22:06:24 20° SSE 22:14:52 10° ESE visible
30 Aug 13.2 22:13:51 10° SSW 22:28:15 27° SSE 22:37:47 10° E visible
31 Aug 14.0 20:19:33 10° SSE 20:23:51 11° SSE 20:27:49 10° SE visible
31 Aug 12.9 22:33:43 10° SSW 22:49:58 36° SSE 22:59:53 10° E visible
